Irving, TX

4:34 PM CST on February 08, 2016 (GMT -0600)
Dallas-Fort Worth International

Weather History for KDFW - April, 2013

Change the Weather History Date:

Monday, April 1, 2013

  Actual Average Record
Temperature  
Mean Temperature 66 °F 62 °F  
Max Temperature 79 °F 73 °F 93 °F (1918)
Min Temperature 52 °F 51 °F 31 °F (1899)
Degree Days  
Heating Degree Days 0 5  
Month to date heating degree days 0 5  
Since 1 July heating degree days 1869 2198  
Cooling Degree Days 1 2  
Month to date cooling degree days 1 2  
Year to date cooling degree days 34 41  
Growing Degree Days 16 (Base 50)    
Moisture  
Dew Point 48 °F    
Average Humidity 59    
Maximum Humidity 89    
Minimum Humidity 28    
Precipitation  
Precipitation 0.00 in 0.10 in 2.51 in (1916)
Month to date precipitation 0.00 0.10  
Year to date precipitation 8.01 8.38  
Snow  
Snow 0.00 in 0.00 in 0.00 in ()
Month to date snowfall 0.0 0.0  
Since 1 July snowfall 0.8 1.2  
Snow Depth 0.00 in    
Sea Level Pressure  
Sea Level Pressure 30.00 in    
Wind  
Wind Speed 6 mph (ENE)    
Max Wind Speed 14 mph    
Max Gust Speed 15 mph    
Visibility 10 miles    
Events      
T = Trace of Precipitation, MM = Missing Value Source: NWS Daily Summary

Daily Weather History Graph

Daily Weather History Graph

Search for Another Location

Airport or City:

Trip Planner

Search our weather history database for the weather conditions in past years. The results will help you decide how hot, cold, wet, or windy it might be!

Date:

Astronomy

Apr. 01, 2013 Rise Set
Actual Time 7:15 AM CDT 7:48 PM CDT
Civil Twilight 6:50 AM CDT 8:13 PM CDT
Nautical Twilight 6:21 AM CDT 8:42 PM CDT
Astronomical Twilight 5:52 AM CDT 9:12 PM CDT
Moon 12:44 AM CDT (4/1) 11:17 AM CDT (4/1)
Length of Visible Light 13h 22m
Length of Day
12h 32m
Waning Gibbous, 67% of the Moon is Illuminated
Apr 1
Waning Gibbous
Apr 2
Last Quarter
Apr 10
New
Apr 18
First Quarter
Apr 25
Full

Hourly Weather History & Observations

Time (CDT) Temp. Dew Point Humidity Pressure Visibility Wind Dir Wind Speed Gust Speed Precip Events Conditions
12:53 AM 61.0 °F 48.9 °F 64% 29.98 in 10.0 mi Calm Calm - N/A   Clear
1:53 AM 60.8 °F 48.2 °F 63% 30.00 in 10.0 mi NNW 3.5 mph - N/A   Clear
2:53 AM 57.0 °F 50.0 °F 77% 29.99 in 10.0 mi NNW 3.5 mph - N/A   Clear
3:53 AM 57.0 °F 48.9 °F 74% 29.99 in 10.0 mi NNW 5.8 mph - N/A   Clear
4:53 AM 53.1 °F 48.0 °F 83% 29.99 in 10.0 mi North 4.6 mph - N/A   Clear
5:53 AM 54.0 °F 50.0 °F 86% 30.00 in 10.0 mi North 4.6 mph - N/A   Partly Cloudy
6:53 AM 54.0 °F 48.9 °F 83% 30.02 in 10.0 mi North 3.5 mph - N/A   Partly Cloudy
7:53 AM 52.0 °F 48.0 °F 86% 30.04 in 10.0 mi Calm Calm - N/A   Partly Cloudy
8:53 AM 60.1 °F 52.0 °F 75% 30.06 in 10.0 mi ENE 3.5 mph - N/A   Partly Cloudy
9:53 AM 64.9 °F 52.0 °F 63% 30.06 in 10.0 mi Calm Calm - N/A   Scattered Clouds
10:53 AM 70.0 °F 48.0 °F 46% 30.06 in 10.0 mi SE 10.4 mph - N/A   Mostly Cloudy
11:53 AM 72.0 °F 46.9 °F 41% 30.06 in 10.0 mi Variable 4.6 mph - N/A   Mostly Cloudy
12:53 PM 73.4 °F 44.6 °F 36% 30.06 in 10.0 mi SSE 6.9 mph - N/A   Scattered Clouds
1:53 PM 75.0 °F 45.0 °F 34% 30.03 in 10.0 mi Calm Calm - N/A   Scattered Clouds
2:53 PM 78.1 °F 46.0 °F 32% 30.01 in 10.0 mi East 6.9 mph - N/A   Scattered Clouds
3:53 PM 78.1 °F 45.0 °F 31% 29.98 in 10.0 mi East 9.2 mph - N/A   Mostly Cloudy
4:53 PM 79.0 °F 44.1 °F 29% 29.95 in 10.0 mi East 9.2 mph - N/A   Mostly Cloudy
5:53 PM 78.1 °F 43.0 °F 29% 29.93 in 10.0 mi SE 9.2 mph - N/A   Scattered Clouds
6:53 PM 75.9 °F 46.0 °F 35% 29.92 in 10.0 mi ESE 10.4 mph - N/A   Mostly Cloudy
7:53 PM 71.1 °F 46.9 °F 42% 29.93 in 10.0 mi ESE 8.1 mph - N/A   Scattered Clouds
8:53 PM 68.0 °F 48.9 °F 50% 29.94 in 10.0 mi East 4.6 mph - N/A   Scattered Clouds
9:53 PM 66.9 °F 50.0 °F 54% 29.96 in 10.0 mi ENE 6.9 mph - N/A   Mostly Cloudy
10:53 PM 66.0 °F 50.0 °F 56% 29.98 in 10.0 mi NE 4.6 mph - N/A   Mostly Cloudy
11:53 PM 66.0 °F 52.0 °F 60% 29.99 in 10.0 mi NE 4.6 mph - N/A   Mostly Cloudy